Location: Nianha
(10.8000°N, 4.6333°W)
Time: 18:22:11
(UTC+00:00)

Okean O Rocket - Pass Details

Date: 14 November 2019
Orbit: 624 x 644 km, 98.2° (Epoch: 28 January)

Event Time Altitude Azimuth Distance (km) Brightness Sun altitude
Rises 04:45:42 0° 36° (NE) 2,895 5.3 -21.5°
Reaches altitude 10° 04:48:23 10° 53° (NE) 1,990 4.6 -20.9°
Maximum altitude 04:51:32 20° 100° (E) 1,451 4.4 -20.1°
Drops below altitude 10° 04:54:43 10° 147° (SSE) 1,997 4.8 -19.4°
Sets 04:57:24 0° 164° (SSE) 2,907 5.4 -18.8°
